KD8PH Weather Reports


Display with metric or nautical units.
time (UTC)temp
F
wind
direction
speed
MPH
gust
MPH
rain 1hr
in
rain 24hr
in
rain mn
in
humidity
%
barometer
mb
20260507060543 64 315 2.0 6.0 0.01 0.15 0.01 92 1010.4
20260507055541 65 0.0 1.0 0.01 0.15 0.01 93 1010.6
20260507054541 65 0.0 0.0 0.01 0.15 0.01 93 1010.0
20260507053551 65 0.0 0.0 0.00 0.14 0.00 93 1010.1
20260507052546 65 0.0 0.0 0.00 0.14 0.00 93 1010.3
20260507051542 65 0.0 0.0 0.00 0.14 0.00 93 1010.4
20260507050555 65 0.0 0.0 0.00 0.14 0.00 93 1010.3
20260507045602 66 0.0 0.0 0.01 0.14 0.14 93 1010.1
20260507044548 66 0.0 1.0 0.01 0.14 0.14 93 1010.7
20260507043547 66 0.0 0.0 0.01 0.14 0.14 93 1010.7
20260507042555 66 0.0 1.0 0.01 0.14 0.14 93 1010.2
20260507041600 66 0.0 1.0 0.01 0.14 0.14 93 1010.6
20260507040551 66 0.0 1.0 0.01 0.14 0.14 93 1011.8
20260507035605 66 0.0 0.0 0.00 0.13 0.13 92 1010.4
20260507034544 66 0.0 0.0 0.00 0.13 0.13 92 1010.9
20260507033542 66 0.0 0.0 0.00 0.13 0.13 92 1010.1
20260507032541 66 0.0 0.0 0.00 0.13 0.13 93 1009.9
20260507031536 66 0.0 0.0 0.01 0.13 0.13 93 1010.4
20260507030538 66 0.0 0.0 0.01 0.13 0.13 92 1010.7
20260507025549 66 0.0 0.0 0.01 0.13 0.13 92 1010.3
20260507024541 66 0.0 0.0 0.01 0.13 0.13 92 1010.3
20260507023534 66 0.0 0.0 0.01 0.13 0.13 92 1010.4
20260507022541 66 0.0 0.0 0.01 0.13 0.13 92 1010.7
20260507021539 66 0.0 0.0 0.00 0.12 0.12 92 1010.9
20260507020538 66 0.0 0.0 0.01 0.12 0.12 92 1010.5
20260507015547 66 0.0 0.0 0.01 0.12 0.12 92 1010.5
20260507014550 66 0.0 0.0 0.01 0.12 0.12 92 1010.2
20260507013552 66 0.0 0.0 0.01 0.12 0.12 92 1010.2
20260507012553 66 0.0 0.0 0.01 0.12 0.12 92 1010.4
20260507011539 66 0.0 0.0 0.02 0.12 0.12 92 1010.5
20260507010542 66 0.0 0.0 0.01 0.11 0.11 92 1010.6
20260507005554 66 338 1.0 2.0 0.01 0.11 0.11 92 1010.5
20260507004542 66 0.0 1.0 0.01 0.11 0.11 92 1010.6
20260507003607 66 0.0 0.0 0.02 0.11 0.11 92 1010.8
20260507002548 66 0.0 0.0 0.02 0.11 0.11 92 1010.8
20260507001544 66 23 1.0 2.0 0.01 0.10 0.10 92 1010.7
20260507000537 66 0.0 1.0 0.02 0.10 0.10 92 1010.9
20260506235544 66 248 1.0 2.0 0.02 0.10 0.10 92 1010.9
20260506234553 66 68 1.0 3.0 0.02 0.10 0.10 92 1010.3
20260506233540 66 0.0 2.0 0.02 0.09 0.09 92 1010.5
20260506232544 66 0.0 1.0 0.02 0.09 0.09 91 1010.5
20260506231535 66 45 1.0 3.0 0.03 0.09 0.09 91 1010.2
20260506230535 66 0.0 1.0 0.02 0.08 0.08 91 1010.7
20260506225543 66 23 1.0 2.0 0.03 0.08 0.08 91 1010.3
20260506224534 66 23 1.0 3.0 0.03 0.08 0.08 91 1010.2
20260506223539 66 45 1.0 3.0 0.03 0.07 0.07 91 1010.1
20260506222535 66 45 1.0 4.0 0.03 0.07 0.07 91 1009.9
20260506221534 66 248 1.0 5.0 0.03 0.06 0.06 91 1009.9
20260506220548 66 23 3.0 5.0 0.04 0.06 0.06 90 1009.8
20260506215543 66 113 2.0 3.0 0.03 0.05 0.05 90 1010.0
20260506214548 66 293 2.0 7.0 0.03 0.05 0.05 90 1010.4
20260506213545 66 135 3.0 7.0 0.02 0.04 0.04 89 1009.2
20260506212549 67 23 1.0 2.0 0.02 0.04 0.04 88 1009.5
20260506211558 68 113 1.0 3.0 0.01 0.03 0.03 86 1009.6
20260506210539 68 68 1.0 3.0 0.00 0.02 0.02 86 1009.4
20260506205550 68 68 2.0 5.0 0.00 0.02 0.02 86 1008.8
20260506204547 67 90 1.0 3.0 0.00 0.02 0.02 86 1009.0
20260506203539 67 23 1.0 3.0 0.00 0.02 0.02 86 1009.5
20260506202536 67 68 2.0 4.0 0.00 0.02 0.02 86 1009.6
20260506201541 68 90 1.0 3.0 0.00 0.02 0.02 86 1010.0
20260506200549 68 45 2.0 6.0 0.00 0.02 0.02 85 1010.7
20260506195547 68 45 2.0 9.0 0.00 0.02 0.02 85 1010.4
20260506194535 68 45 1.0 3.0 0.00 0.02 0.02 84 1010.4
20260506193538 68 45 2.0 4.0 0.00 0.02 0.02 84 1010.6
20260506192534 69 23 2.0 5.0 0.00 0.02 0.02 83 1010.9
20260506191541 69 338 2.0 8.0 0.00 0.02 0.02 82 1010.7
20260506190536 72 0 5.0 15.0 0.00 0.02 0.02 78 1011.0
20260506185541 75 338 3.0 6.0 0.00 0.02 0.02 79 1011.1
20260506184536 76 225 2.0 9.0 0.00 0.02 0.02 79 1010.9
20260506183538 76 248 3.0 11.0 0.00 0.02 0.02 78 1011.1
20260506182533 75 270 2.0 6.0 0.00 0.02 0.02 79 1010.9
20260506181536 75 225 2.0 5.0 0.00 0.02 0.02 80 1010.9
20260506180552 74 225 2.0 10.0 0.00 0.02 0.02 80 1011.0
20260506175540 74 248 4.0 9.0 0.00 0.02 0.02 80 1011.0
20260506174544 74 248 2.0 8.0 0.00 0.02 0.02 80 1011.1
20260506173537 74 248 1.0 3.0 0.00 0.02 0.02 81 1011.5
20260506172539 73 248 2.0 4.0 0.00 0.02 0.02 81 1011.5
20260506171538 73 248 2.0 8.0 0.00 0.02 0.02 81 1011.6
20260506170536 73 248 2.0 9.0 0.00 0.02 0.02 81 1011.6
20260506165543 73 225 3.0 8.0 0.00 0.02 0.02 81 1011.6
20260506164537 73 315 1.0 3.0 0.00 0.02 0.02 82 1011.4
20260506163544 72 225 3.0 6.0 0.00 0.02 0.02 81 1011.1
20260506162544 72 225 4.0 6.0 0.00 0.02 0.02 82 1011.0
20260506161546 72 248 2.0 6.0 0.00 0.02 0.02 82 1011.2
20260506160535 72 225 1.0 4.0 0.00 0.02 0.02 82 1011.3
20260506155549 72 248 3.0 8.0 0.00 0.02 0.02 82 1011.3
20260506154550 72 225 4.0 12.0 0.00 0.02 0.02 82 1011.2
20260506153553 72 225 5.0 14.0 0.00 0.02 0.02 82 1011.5
20260506152540 71 248 6.0 14.0 0.00 0.02 0.02 83 1011.5
20260506151554 70 225 4.0 11.0 0.01 0.02 0.02 85 1011.4
20260506150600 69 248 3.0 8.0 0.02 0.02 0.02 86 1011.4
20260506145542 69 248 2.0 5.0 0.02 0.02 0.02 87 1011.6
20260506144541 69 248 2.0 6.0 0.02 0.02 0.02 88 1011.7
20260506143546 68 225 4.0 12.0 0.02 0.02 0.02 89 1011.5
20260506142556 68 225 6.0 15.0 0.02 0.02 0.02 89 1011.0
20260506141538 67 225 8.0 14.0 0.01 0.01 0.01 89 1011.3
20260506140541 68 225 3.0 7.0 0.00 0.00 0.00 88 1012.0
20260506135537 68 248 7.0 13.0 0.00 0.00 0.00 87 1012.3
20260506134535 68 225 7.0 13.0 0.00 0.00 0.00 86 1012.2
20260506133545 69 248 6.0 15.0 0.00 0.00 0.00 86 1012.1
20260506132537 69 248 7.0 15.0 0.00 0.00 0.00 84 1011.1
20260506131537 69 248 9.0 18.0 0.00 0.00 0.00 83 1011.8
20260506130541 69 248 8.0 16.0 0.00 0.00 0.00 83 1011.7
20260506125538 69 225 6.0 17.0 0.00 0.00 0.00 83 1011.6
20260506124536 70 225 7.0 18.0 0.00 0.00 0.00 82 1011.4
20260506123543 70 248 8.0 17.0 0.00 0.00 0.00 82 1011.2
20260506122548 70 248 9.0 17.0 0.00 0.00 0.00 81 1010.8
20260506121545 70 248 7.0 19.0 0.00 0.00 0.00 81 1010.9
20260506120553 70 225 7.0 16.0 0.00 0.00 0.00 81 1010.7
20260506115547 70 225 7.0 13.0 0.00 0.00 0.00 81 1010.4
20260506114542 70 248 5.0 12.0 0.00 0.00 0.00 80 1010.2
20260506113537 70 225 5.0 16.0 0.00 0.00 0.00 80 1010.1
20260506112544 70 248 5.0 10.0 0.00 0.00 0.00 79 1010.0
20260506111540 70 225 6.0 16.0 0.00 0.00 0.00 79 1009.7
20260506110549 70 225 8.0 14.0 0.00 0.00 0.00 79 1009.5
20260506105537 70 225 8.0 15.0 0.00 0.00 0.00 78 1009.7
20260506104541 70 248 9.0 19.0 0.00 0.00 0.00 78 1009.8
20260506103536 70 225 5.0 12.0 0.00 0.00 0.00 78 1009.7
20260506102536 70 225 5.0 10.0 0.00 0.00 0.00 77 1009.7
20260506101538 70 225 6.0 14.0 0.00 0.00 0.00 77 1009.4
20260506100556 70 248 3.0 9.0 0.00 0.00 0.00 76 1009.2
20260506095540 70 225 6.0 15.0 0.00 0.00 0.00 76 1009.1
20260506094538 71 225 6.0 12.0 0.00 0.00 0.00 75 1009.1
20260506093549 71 225 6.0 12.0 0.00 0.00 0.00 75 1009.3
20260506092553 71 225 7.0 13.0 0.00 0.00 0.00 74 1009.0
20260506091535 71 248 5.0 13.0 0.00 0.00 0.00 73 1009.3
20260506090546 71 248 2.0 9.0 0.00 0.00 0.00 73 1009.2
20260506085536 71 248 5.0 13.0 0.00 0.00 0.00 72 1009.1
20260506084534 71 225 4.0 10.0 0.00 0.00 0.00 72 1009.1
20260506083536 71 248 4.0 10.0 0.00 0.00 0.00 72 1009.0
20260506082537 71 225 5.0 12.0 0.00 0.00 0.00 72 1008.9
20260506081539 71 248 6.0 11.0 0.00 0.00 0.00 71 1008.9
20260506080534 71 225 5.0 10.0 0.00 0.00 0.00 71 1009.1
20260506072543 72 225 5.0 16.0 0.00 0.00 0.00 71 1008.8
20260506071614 72 225 7.0 14.0 0.00 0.00 0.00 71 1008.8
20260506070538 72 225 8.0 16.0 0.00 0.00 0.00 71 1008.8
20260506061552 72 225 6.0 16.0 0.00 0.00 0.00 70 1009.2